Location: Friaudour
(46.0460°N, 1.2873°E)
Time: 08:45:44
(UTC+00:00)

Cosmos 2251 Rocket - Pass Details

Date: 14 July 2020
Orbit: 764 x 792 km, 74.0° (Epoch: 14 August)

Event Time Altitude Azimuth Distance (km) Brightness Sun altitude
Exits shadow 01:32:35 24° 251° (WSW) 1,538 4.7 -19.2°
Maximum altitude 01:35:01 37° 300° (WNW) 1,173 4.5 -19.0°
Drops below altitude 10° 01:39:53 10° 8° (N) 2,316 7.1 -18.7°
Sets 01:42:27 0° 17° (NNE) 3,249 8.4 -18.5°
